Flag for Australia Weather past 2 weeks in Darwin, Northern Territory, Australia

Now
82 °F

Partly cloudy.


Feels Like: 92 °F
Forecast: 78 / 91 °F
Wind: 3 mph from Northwest

Location: Darwin Airport

Current Time: Dec 29, 2014 at 10:39:12 PM

Latest Report: Dec 29, 2014 at 10:00 PM


Visibility: N/A

Pressure: 29.74 "Hg

Humidity: 89%

Dew point: 79 °F

Location of DarwinLocation

Historic Weather in Darwin — Graph

°F

Darwin temperature yesterday

Maximum temperature yesterday: 91 °F (at 2:30 PM)
Minimum temperature yesterday: 81 °F (at 2:30 AM)
Average temperature yesterday: 86 °F

Past Weeks' High & Low Weather Summary

 TemperatureHumidityPressure
High95 °F (Dec 20, 4:00 PM)100% (Dec 20, 5:30 AM)29.86 "Hg (Dec 20, 5:30 AM)
Low77 °F (Dec 20, 5:30 AM)39% (Dec 20, 5:30 PM)29.62 "Hg (Dec 26, 3:30 PM)
Average86 °F73%29.74 "Hg
* Reported Dec 14 9:30 PM — Dec 29 9:30 PM, Darwin, Weather by CustomWeather, © 2014

Note: Actual official high and low records may vary slightly from our data, if they occured in-between our weather recording intervals... More about our weather records

Advertising

Darwin weather history for previous 24 hours

 ConditionsComfort  
Time TempWeatherWind HumidityBarometerVisibility
9:30 PM
Dec 29
82 °FPassing clouds.3 mph89%29.74 "HgN/A
9:00 PM82 °FPartly cloudy.1 mph89%29.74 "HgN/A
8:30 PM82 °FPartly cloudy.3 mph89%29.71 "HgN/A
8:00 PM82 °FPassing clouds.1 mph89%29.71 "HgN/A
7:30 PM82 °FPartly sunny.6 mph89%29.71 "HgN/A
7:00 PM82 °FLight rain. Broken clouds.8 mph89%29.68 "HgN/A
6:30 PM82 °FLight rain. Partly sunny.6 mph89%29.68 "HgN/A
6:00 PM84 °FDrizzle. Partly sunny.7 mph84%29.68 "HgN/A
5:30 PM84 °FLight rain. Broken clouds.10 mph84%29.68 "HgN/A
5:00 PM84 °FScattered showers. Partly sunny.10 mph79%29.68 "HgN/A
4:30 PM86 °FScattered showers. Partly sunny.12 mph75%29.65 "HgN/A
4:00 PM84 °FScattered showers. Broken clouds.7 mph84%29.65 "HgN/A
3:30 PM82 °FThunderstorms. Broken clouds.9 mph89%29.68 "HgN/A
3:00 PM86 °FThunderstorms. Broken clouds.9 mph75%29.68 "HgN/A
2:30 PM88 °FRain showers. Partly sunny.10 mph70%29.68 "HgN/A
2:00 PM90 °FBroken clouds.12 mph67%29.68 "HgN/A
1:30 PM91 °FBroken clouds.9 mph59%29.68 "HgN/A
12:30 PM88 °FRain showers. Scattered clouds.12 mph66%29.74 "HgN/A
12:00 PM91 °FThundershowers. Partly sunny.8 mph59%29.74 "HgN/A
11:30 AM91 °FScattered showers. Scattered clouds.9 mph59%29.74 "HgN/A
11:00 AM91 °FSprinkles. Scattered clouds.10 mph56%29.77 "HgN/A
10:30 AM88 °FBroken clouds.8 mph70%29.77 "HgN/A
10:00 AM86 °FBroken clouds.8 mph75%29.77 "HgN/A
9:30 AM86 °FPartly sunny.7 mph75%29.77 "HgN/A
9:00 AM84 °FBroken clouds.7 mph79%29.77 "HgN/A
8:30 AM82 °FBroken clouds.8 mph84%29.77 "HgN/A
8:00 AM81 °FBroken clouds.8 mph84%29.77 "HgN/A
7:30 AM81 °FBroken clouds.6 mph89%29.77 "HgN/A
7:00 AM81 °FBroken clouds.8 mph89%29.77 "HgN/A
6:30 AM79 °FPassing clouds.7 mph94%29.74 "HgN/A
6:00 AM79 °FPassing clouds.7 mph94%29.74 "HgN/A
5:30 AM79 °FPassing clouds.7 mph94%29.71 "HgN/A
5:00 AM79 °FPassing clouds.6 mph94%29.71 "HgN/A
4:30 AM81 °FPassing clouds.8 mph89%29.71 "HgN/A
4:00 AM81 °FPassing clouds.7 mph84%29.71 "HgN/A
3:30 AM81 °FPassing clouds.6 mph84%29.71 "HgN/A
3:00 AM81 °FPassing clouds.2 mph84%29.71 "HgN/A
2:30 AM82 °FScattered showers. Passing clouds.9 mph79%29.71 "HgN/A
2:00 AM82 °FScattered showers. Passing clouds.7 mph79%29.74 "HgN/A
1:30 AM82 °FPassing clouds.7 mph79%29.74 "HgN/A
1:00 AM82 °FPassing clouds.6 mph84%29.74 "HgN/A
12:30 AM82 °FPassing clouds.6 mph84%29.77 "HgN/A
12:00 AM82 °FPassing clouds.5 mph84%29.77 "HgN/A
11:30 PM
Dec 28
82 °FPassing clouds.2 mph84%29.77 "HgN/A
10:30 PM84 °FPartly cloudy.5 mph79%29.77 "HgN/A
10:00 PM84 °FPartly cloudy.6 mph79%29.77 "HgN/A
Weather by CustomWeather, © 2014

See weather overviewHow to use our weather pages